TimeEST,TemperatureF,Dew PointF,Humidity,Sea Level PressureIn,VisibilityMPH,Wind Direction,Wind SpeedMPH,Gust SpeedMPH,PrecipitationIn,Events,Conditions,WindDirDegrees,DateUTC
12:51 AM,37.0,30.0,76,30.16,10.0,NNW,4.6,-,N/A,,Overcast,330,2012-11-05 05:51:00
1:51 AM,35.1,30.0,82,30.15,10.0,North,5.8,-,N/A,,Partly Cloudy,10,2012-11-05 06:51:00
2:51 AM,34.0,30.0,85,30.16,10.0,Calm,Calm,-,N/A,,Clear,0,2012-11-05 07:51:00
3:51 AM,32.0,28.9,88,30.17,8.0,Calm,Calm,-,N/A,,Clear,0,2012-11-05 08:51:00
4:51 AM,32.0,28.9,88,30.17,7.0,Calm,Calm,-,N/A,,Clear,0,2012-11-05 09:51:00
5:51 AM,30.9,28.0,89,30.19,7.0,Calm,Calm,-,N/A,,Clear,0,2012-11-05 10:51:00
6:51 AM,28.9,27.0,92,30.19,7.0,NE,4.6,-,N/A,,Scattered Clouds,40,2012-11-05 11:51:00
7:51 AM,30.9,27.0,85,30.20,9.0,NNE,3.5,-,N/A,,Scattered Clouds,20,2012-11-05 12:51:00
8:51 AM,34.0,28.9,82,30.21,9.0,Calm,Calm,-,N/A,,Clear,0,2012-11-05 13:51:00
9:51 AM,39.0,27.0,62,30.19,10.0,North,5.8,-,N/A,,Clear,10,2012-11-05 14:51:00
10:51 AM,42.1,27.0,55,30.20,10.0,Calm,Calm,-,N/A,,Scattered Clouds,0,2012-11-05 15:51:00
11:51 AM,43.0,28.9,58,30.19,10.0,Calm,Calm,-,N/A,,Scattered Clouds,0,2012-11-05 16:51:00
12:51 PM,43.0,26.1,51,30.17,10.0,Calm,Calm,-,N/A,,Scattered Clouds,0,2012-11-05 17:51:00
1:51 PM,45.0,27.0,49,30.14,10.0,Calm,Calm,-,N/A,,Scattered Clouds,0,2012-11-05 18:51:00
2:51 PM,46.9,27.0,46,30.13,10.0,NNE,3.5,-,N/A,,Partly Cloudy,30,2012-11-05 19:51:00
3:51 PM,46.9,28.0,48,30.13,10.0,ESE,3.5,-,N/A,,Partly Cloudy,110,2012-11-05 20:51:00
4:51 PM,46.0,27.0,47,30.12,10.0,NE,5.8,-,N/A,,Clear,50,2012-11-05 21:51:00
5:51 PM,41.0,28.0,60,30.14,10.0,ENE,5.8,-,N/A,,Clear,60,2012-11-05 22:51:00
6:51 PM,39.0,27.0,62,30.16,10.0,ENE,5.8,-,N/A,,Clear,60,2012-11-05 23:51:00
7:51 PM,37.0,27.0,67,30.16,10.0,Variable,3.5,-,N/A,,Clear,0,2012-11-06 00:51:00
8:51 PM,36.0,27.0,70,30.17,10.0,Calm,Calm,-,N/A,,Clear,0,2012-11-06 01:51:00
9:51 PM,36.0,27.0,70,30.17,10.0,Calm,Calm,-,N/A,,Clear,0,2012-11-06 02:51:00
10:51 PM,34.0,26.1,73,30.17,10.0,East,3.5,-,N/A,,Clear,90,2012-11-06 03:51:00
11:51 PM,33.1,26.1,75,30.14,10.0,East,5.8,-,N/A,,Clear,80,2012-11-06 04:51:00